Showing default

KORSAT 7, 58463

Orbit data source: Space-Track

KORSAT 7, 58463 is a payload satellite owned by DAPA (KR) in SSO that was launched on Fri, 01 Dec 2023 UTC via an FALCON 9 launch vehicle from the Air Force Western Test Range (AFWTR). Payload-class satellites include a variety of spacecraft equipped with specific instruments for various scientific and technological missions. These include communications satellites like Starlink; space stations such as the ISS; scientific satellites like the Hubble; Earth observation satellites from companies like Planet Labs, Umbra, and HawkEye 360; GPS; miniature CubeSats for education and research; and military/defense satellites.

Loading next visibility...
Identifier
58463, 2023-185B
Orbit
SSO
Country
Flag of UnknownUnknown / SKOR
Related business
Manufacturer
KAI
Mission
Operational Defense Imaging
Bus & Motor
CAS500?, Unknown motor
Mass
~800 kg wet, ~750 kg dry
Launch date (UTC)
2023-12-01 (2 years ago)
Launch vehicle
FALCON 9
Launch site
Air Force Western Test Range (AFWTR)
Object type
Payload
Rocket body
Debris
Shape & HBR
Hex Box + 3 Pan, 3.0 m
Radar Cross Section
10.467 m², Large (>1 m²)

Expand to show TLE details & history
Last TLE update: 16 hours ago

TLE from 16 hours ago
0 KORSAT 7
1 58463U 23185B   25306.52028326  .00002829  00000-0  22444-3 0  9999
2 58463  97.6348   9.9373 0025870  14.2452 345.9496 15.01062227105288
Epoch: 2025-11-02T12:29Z
TLE epoch observation values (Epoch: 2025-11-02T12:29:12.473Z)
Latitude
-0.00003°
Longitude
140.6005°
Altitude
549.255 km
Speed
7.597 km/s
True Right ascension
00h 39m 44s
True Declination
0° 00' 00"
Sunlit
Object was in full shadow at epoch
Visualization orbit readout
Latitude
Unknown
Longitude
Unknown
Altitude
Unknown
Speed
Unknown
Apparent Right ascension
Unknown
Apparent Declination
Unknown
Sunlit
N/A
Visualization observer readout
Local Sidereal Time
23:58:46
Azimuth
Unknown
Elevation
Unknown
Doppler factor
Unknown
Orbital elements
Apogee altitude
578.571 km
Perigee altitude
542.67 km
Semi-major axis
6,938.757 km
Eccentricity
0.00259
Inclination
97.6348°
RAAN
9.9373°
Arg. of periapsis
14.2452°
True anomaly
345.8774°
Mean anomaly
345.9496°
Eccentric anomaly
345.91352°
Mean motion
3.75509 °/min
Orbital period
95.87 mins
BSTAR
0.00022444
Loading maneuver chart data...
Computing Atmospheric mass density...
Loading historical data...
Loading historical data...
Loading historical data...
Loading historical data...
Loading historical data...
Loading historical data...
Loading historical data...

Documentation

Showing up to 5 results
|